Regional Weather Roundup
Issued by NWS

Home | Current Version | Previous Version | Text Only | Print | Product List | Glossary Off
Versions: 1 2 3 4 5 6 7 8 9 10 11 12 13 14 15 16 17 18 19 20 21 22 23 24 25 26 27 28 29 30 31 32 33 34 35 36 37 38 39 40 41 42 43 44 45 46 47 48 49 50

068
ASUS43 KDMX 192306
RWRIA

WEATHER ROUNDUP FOR IOWA
NATIONAL WEATHER SERVICE DES MOINES IA
600 PM CDT SAT AUG 19 2017

NOTE: "FAIR" INDICATES FEW OR NO CLOUDS BELOW 12,000 FEET WITH NO
SIGNIFICANT WEATHER AND/OR OBSTRUCTIONS TO VISIBILITY.

* - THESE STATIONS ARE NOT NWS STATIONS...THUS NOT UNDER NWS
QUALITY CONTROL.  THEY ALSO DO NOT REPORT WEATHER SUCH
AS PRECIPITATION OR FOG.

IAZ001>003-012>014-020>022-031>034-043>046-200000-
   NORTHWEST IOWA

CITY           SKY/WX    TMP DP  RH WIND       PRES   REMARKS
CARROLL *      SUNNY     79  68  69 SE6       29.91F HX  81
CHEROKEE *     SUNNY     81  63  55 SE9       29.89F HX  82
DENISON *      SUNNY     81  66  61 SE7       29.91F HX  83
LE MARS *      MOSUNNY   79  66  65 S7        29.87S HX  81
ORANGE CITY *  SUNNY     82  66  57 S9        29.89S HX  85
SHELDON *      SUNNY     79  64  61 SE9       29.87F HX  81
SIOUX CITY     PTSUNNY   82  66  58 SE12      29.87S HX  84
SPENCER        SUNNY     80  63  55 S9        29.90F HX  81
STORM LAKE *   SUNNY     79  64  61 S9        29.91F HX  81
$$

IAZ055>058-069>071-079>083-090>094-200000-
   SOUTHWEST IOWA

CITY           SKY/WX    TMP DP  RH WIND       PRES   REMARKS
ATLANTIC *     SUNNY     84  63  48 S6        29.90F HX  85
AUDUBON *      SUNNY     82  68  61 SE6       29.92F HX  85
CLARINDA *     SUNNY     86  63  45 S5        29.93F HX  87
COUNCIL BLFS * SUNNY     84  66  54 S12       29.90S HX  86
CRESTON *      SUNNY     86  55  35 SW3       29.93S HX  84
HARLAN  *      SUNNY     82  66  57 S8        29.93F HX  85
LAMONI         SUNNY     90  54  29 W3        29.92S HX  88
RED OAK *      SUNNY     84  66  54 S6        29.90F HX  86
SHENANDOAH *   SUNNY     86  64  48 S6        29.90F HX  87
$$

IAZ047>049-059>061-072>074-084-200000-
   CENTRAL IOWA

CITY           SKY/WX    TMP DP  RH WIND       PRES   REMARKS
AMES           SUNNY     82  67  60 CALM      29.91F HX  84
ANKENY *       SUNNY     82  64  54 SE6       29.91S HX  84
BOONE *        SUNNY     81  64  57 S6        29.92S HX  82
CHARITON *     SUNNY     86  57  37 CALM      29.91S HX  85
DES MOINES     SUNNY     84  60  44 S6        29.90S HX  84
GRINNELL*      SUNNY     80  66  63 E5        29.93F HX  82
KNOXVILLE *    SUNNY     86  57  37 CALM      29.90S HX  85
MARSHALLTOWN   SUNNY     80  65  59 SE9       29.91F HX  82
NEWTON *       SUNNY     81  66  61 E7        29.91F HX  83
PELLA *        SUNNY     85  64  48 N7        29.91F HX  87
PERRY *          N/A     82  67  59 E5        29.92S HX  85
$$

IAZ004>006-015-016-023>025-035-036-200000-
   NORTH CENTRAL IOWA

CITY           SKY/WX    TMP DP  RH WIND       PRES   REMARKS
ALGONA *       SUNNY     79  64  61 S8        29.92S HX  81
CLARION *      MOSUNNY   79  66  65 S7        29.93S HX  81
ESTHERVILLE    SUNNY     77  66  68 S9        29.90F
FORT DODGE *   SUNNY     81  64  57 S7        29.92F HX  82
MASON CITY     SUNNY     79  62  56 SE7       29.94F HX  80
FOREST CITY *    N/A     77  64  65 S5        29.93S
WEBSTER CITY * SUNNY     81  64  57 S6        29.90S HX  82
IOWA FALLS *     N/A     80  65  61 S3        29.94S HX  82
$$

IAZ007>011-017>019-026>030-037>042-050>054-066-200000-
   NORTHEAST IOWA

CITY           SKY/WX    TMP DP  RH WIND       PRES   REMARKS
CEDAR RAPIDS   MOSUNNY   80  62  54 SE5       29.93S HX  81
CHARLES CITY * SUNNY     77  64  65 S6        29.94S
CLINTON *      SUNNY     80  62  54 SE6       29.96S HX  81
DECORAH *      SUNNY     77  59  53 CALM      29.94S
DUBUQUE        SUNNY     77  60  55 S5        29.96F
MONTICELLO *   SUNNY     79  63  57 S3        29.94F HX  80
OELWEIN *      MOSUNNY   77  64  65 CALM      29.95S
WATERLOO       MOSUNNY   79  61  53 S8        29.91F HX  80
$$

IAZ064-065-067-068-078-200000-
   EAST CENTRAL IOWA

CITY           SKY/WX    TMP DP  RH WIND       PRES   REMARKS
DAVENPORT      SUNNY     81  61  50 SE3       29.96S HX  82
IOWA CITY      SUNNY     83  63  50 SE7       29.94F HX  84
MT. PLEASANT * SUNNY     83  64  53 E5        29.92F HX  84
MUSCATINE *    SUNNY     82  63  51 SE6       29.93F HX  83
QUAD CITIES    SUNNY     81  61  50 SE5       29.94S HX  82
$$

IAZ062-063-075>077-085>089-095>099-200000-
   SOUTHEAST IOWA

CITY           SKY/WX    TMP DP  RH WIND       PRES   REMARKS
BURLINGTON     SUNNY     82  68  62 E7        29.92F HX  85
FAIRFIELD *    SUNNY     84  63  48 E10       29.91S HX  85
FORT MADISON * SUNNY     82  72  69 E6        29.93S HX  87
KEOKUK *       SUNNY     84  66  54 E6        29.91S HX  86
OSKALOOSA *      N/A     85  65  51 E7        29.91F HX  86
CENTERVILLE *    N/A     86  57  37 CALM      29.93F HX  85
OTTUMWA        SUNNY     87  64  46 E7        29.90F HX  88
WASHINGTON *   SUNNY     82  66  57 E7        29.94S HX  85
$$

ABBREVIATIONS USED IN REMARKS
   TC - TEMPERATURES IN CELSIUS
  WCI - WIND CHILL INDEX
   HX - HEAT INDEX
  VSB - VISIBILITY
$$





USA.gov is the U.S. government's official web portal to all federal, state and local government web resources and services.